This is the latest recevied weather packets stored in our database for station/object WA2TQI. If no packets are shown the sender has not sent any weather packets the latest 10 day(s).
| Time | Temp. | Humidity | Pressure | Rain* | Wind** | Luminosity | Snow |
|---|---|---|---|---|---|---|---|
| 1777641661 | 12.22° C | 71% | 1015.4 hPa | 0 mm | - | - | - |
| 1777641355 | 11.67° C | 72% | 1015.6 hPa | 0 mm | - | - | - |
| 1777641051 | 12.22° C | 72% | 1015.6 hPa | 0 mm | - | - | - |
| 1777640747 | 12.22° C | 74% | 1015.7 hPa | 0 mm | - | - | - |
| 1777640444 | 12.22° C | 73% | 1015.7 hPa | 0 mm | - | - | - |
| 1777640141 | 11.67° C | 74% | 1015.7 hPa | 0 mm | - | - | - |
| 1777639838 | 11.11° C | 75% | 1015.8 hPa | 0 mm | - | - | - |
| 1777639536 | 11.11° C | 74% | 1015.7 hPa | 0 mm | - | - | - |
| 1777639232 | 11.67° C | 74% | 1015.9 hPa | 0 mm | - | - | - |
| 1777638928 | 11.67° C | 76% | 1015.6 hPa | 0 mm | - | - | - |
| 1777638624 | 11.11° C | 76% | 1015.6 hPa | 0 mm | - | - | - |
| 1777638321 | 11.11° C | 76% | 1015.6 hPa | 0 mm | - | - | - |
| 1777638017 | 11.11° C | 79% | 1015.5 hPa | 0 mm | - | - | - |
| 1777637714 | 11.11° C | 79% | 1015.6 hPa | 0 mm | - | - | - |
| 1777637405 | 11.11° C | 81% | 1015.7 hPa | 0 mm | - | - | - |
| 1777637102 | 10.56° C | 81% | 1015.6 hPa | 0 mm | - | - | - |
| 1777636797 | 10° C | 81% | 1015.6 hPa | 0 mm | - | - | - |
| 1777636494 | 10.56° C | 81% | 1015.7 hPa | 0 mm | - | - | - |
| 1777636190 | 10° C | 84% | 1015.7 hPa | 0 mm | - | - | - |
| 1777635885 | 9.44° C | 84% | 1015.6 hPa | 0 mm | - | - | - |
| 1777635582 | 9.44° C | 84% | 1015.6 hPa | 0 mm | - | - | - |
| 1777635278 | 9.44° C | 87% | 1015.4 hPa | 0 mm | - | - | - |
| 1777634975 | 8.89° C | 88% | 1015.5 hPa | 0 mm | - | - | - |
| 1777634672 | 8.33° C | 90% | 1015.5 hPa | 0 mm | - | - | - |
| 1777634370 | 8.33° C | 91% | 1015.5 hPa | 0 mm | - | - | - |
* Rain latest hour (hover to see other rain measurements)
** Current wind speed in m/s (hover to see current wind gust speed)